DAL8925 KCLT-KIND

Flight info

Callsign DAL8925
Flight time 1h 28m
Altitude 36000
Route WEAZL5 CLAWD HNN PLASH SNKPT2
Aircraft A20N/M-SDE2E3FGHIRWXY/LB1

Departure

Time 2026-05-07 01:58
Airport Charlotte Douglas International Airport (KCLT)

Arrival

Time 2026-05-07 03:26
Airport Indianapolis International Airport (KIND)
Time Latitude Longitude Altitude Speed Heading
2026-05-07 01:29 35.22214 -80.94842 720 ft 0 kts 44°
2026-05-07 01:47 35.22207 -80.94850 720 ft 2 kts 44°
2026-05-07 01:47 35.22200 -80.94861 718 ft 2 kts 66°
2026-05-07 01:48 35.22196 -80.94874 716 ft 2 kts 78°
2026-05-07 01:48 35.22193 -80.94887 715 ft 2 kts 78°
2026-05-07 01:48 35.22191 -80.94900 718 ft 2 kts 65°
2026-05-07 01:48 35.22186 -80.94913 718 ft 2 kts 64°
2026-05-07 01:49 35.22181 -80.94924 716 ft 0 kts 67°
2026-05-07 01:53 35.22187 -80.94916 718 ft 2 kts 41°
2026-05-07 01:53 35.22217 -80.94907 717 ft 6 kts 359°
2026-05-07 01:53 35.22232 -80.94943 714 ft 5 kts 258°
2026-05-07 01:53 35.22219 -80.95010 715 ft 11 kts 256°
2026-05-07 01:54 35.22249 -80.95078 715 ft 10 kts 342°
2026-05-07 01:54 35.22333 -80.95080 715 ft 16 kts 355°
2026-05-07 01:54 35.22465 -80.95093 714 ft 22 kts 355°
2026-05-07 01:54 35.22612 -80.95109 714 ft 5 kts 354°
2026-05-07 01:55 35.22647 -80.95148 711 ft 9 kts 281°
2026-05-07 01:55 35.22650 -80.95179 710 ft 0 kts 270°
2026-05-07 01:56 35.22650 -80.95198 713 ft 6 kts 269°
2026-05-07 01:56 35.22622 -80.95290 714 ft 16 kts 219°
2026-05-07 01:57 35.22569 -80.95303 711 ft 19 kts 170°
2026-05-07 01:57 35.22271 -80.95279 716 ft 81 kts 176°
2026-05-07 01:57 35.21456 -80.95211 720 ft 150 kts 176°
2026-05-07 01:57 35.20246 -80.95105 845 ft 193 kts 175°
2026-05-07 01:58 35.18855 -80.94954 1461 ft 204 kts 177°
2026-05-07 01:58 35.17517 -80.94745 2741 ft 184 kts 177°
2026-05-07 01:58 35.16263 -80.94316 3567 ft 204 kts 162°
2026-05-07 01:58 35.14963 -80.93622 4292 ft 202 kts 169°
2026-05-07 01:59 35.13608 -80.93150 5127 ft 203 kts 173°
2026-05-07 01:59 35.12178 -80.92730 5988 ft 207 kts 174°
2026-05-07 01:59 35.10806 -80.92356 6685 ft 213 kts 175°
2026-05-07 01:59 35.09310 -80.91953 7381 ft 220 kts 175°
2026-05-07 02:00 35.07822 -80.91541 8096 ft 232 kts 175°
2026-05-07 02:00 35.06075 -80.91088 7981 ft 281 kts 175°
2026-05-07 02:00 35.04011 -80.90592 7976 ft 323 kts 174°
2026-05-07 02:00 35.01679 -80.90090 7973 ft 356 kts 178°
2026-05-07 02:01 34.99195 -80.90250 8238 ft 366 kts 198°
2026-05-07 02:01 34.96918 -80.91439 9367 ft 347 kts 217°
2026-05-07 02:01 34.95222 -80.93376 10782 ft 326 kts 236°
2026-05-07 02:01 34.94262 -80.95783 12050 ft 312 kts 255°
2026-05-07 02:02 34.94100 -80.98427 12897 ft 318 kts 275°
2026-05-07 02:02 34.94802 -81.01014 13665 ft 330 kts 296°
2026-05-07 02:02 34.96302 -81.03179 14392 ft 342 kts 316°
2026-05-07 02:02 34.98408 -81.04606 15213 ft 354 kts 334°
2026-05-07 02:03 35.00870 -81.05173 15696 ft 368 kts 349°
2026-05-07 02:03 35.03440 -81.05285 15888 ft 371 kts 351°
2026-05-07 02:03 35.06025 -81.05361 15953 ft 371 kts 351°
2026-05-07 02:03 35.08600 -81.05453 15959 ft 370 kts 351°
2026-05-07 02:04 35.11133 -81.05564 15956 ft 369 kts 350°
2026-05-07 02:04 35.13717 -81.05695 16150 ft 373 kts 350°
2026-05-07 02:04 35.16308 -81.05834 16976 ft 372 kts 349°
2026-05-07 02:04 35.18894 -81.05971 17815 ft 372 kts 349°
2026-05-07 02:05 35.21488 -81.06110 18526 ft 374 kts 348°
2026-05-07 02:05 35.24326 -81.06264 19161 ft 378 kts 348°
2026-05-07 02:05 35.26738 -81.06396 19683 ft 381 kts 348°
2026-05-07 02:05 35.29362 -81.06540 20248 ft 385 kts 348°
2026-05-07 02:06 35.32055 -81.06687 20810 ft 389 kts 347°
2026-05-07 02:06 35.34768 -81.06836 21406 ft 392 kts 347°
2026-05-07 02:06 35.37508 -81.06987 21973 ft 396 kts 347°
2026-05-07 02:06 35.40265 -81.07138 22559 ft 400 kts 347°
2026-05-07 02:07 35.43068 -81.07292 23107 ft 404 kts 347°
2026-05-07 02:07 35.48732 -81.07604 24102 ft 411 kts 347°
2026-05-07 02:07 35.51589 -81.07761 24567 ft 414 kts 347°
2026-05-07 02:08 35.54498 -81.07923 25019 ft 417 kts 347°
2026-05-07 02:08 35.57390 -81.08083 25470 ft 420 kts 347°
2026-05-07 02:08 35.60294 -81.08244 25869 ft 423 kts 347°
2026-05-07 02:08 35.63229 -81.08406 26278 ft 426 kts 347°
2026-05-07 02:09 35.66223 -81.08572 26699 ft 429 kts 347°
2026-05-07 02:09 35.69217 -81.08748 27112 ft 432 kts 346°
2026-05-07 02:09 35.72221 -81.08983 27513 ft 434 kts 346°
2026-05-07 02:09 35.75245 -81.09242 27905 ft 436 kts 346°
2026-05-07 02:10 35.78282 -81.09504 28261 ft 440 kts 346°
2026-05-07 02:10 35.81348 -81.09762 28623 ft 443 kts 346°
2026-05-07 02:10 35.84430 -81.10016 28990 ft 445 kts 346°
2026-05-07 02:10 35.87532 -81.10270 29270 ft 448 kts 346°
2026-05-07 02:11 35.90645 -81.10523 29618 ft 451 kts 346°
2026-05-07 02:11 35.93751 -81.10774 29989 ft 454 kts 346°
2026-05-07 02:11 35.96913 -81.11032 30259 ft 457 kts 346°
2026-05-07 02:11 36.00087 -81.11288 30602 ft 458 kts 345°
2026-05-07 02:12 36.03278 -81.11546 30946 ft 459 kts 345°
2026-05-07 02:12 36.06468 -81.11805 31320 ft 460 kts 345°
2026-05-07 02:12 36.09654 -81.12062 31774 ft 458 kts 345°
2026-05-07 02:12 36.12831 -81.12319 32201 ft 457 kts 344°
2026-05-07 02:13 36.15996 -81.12575 32643 ft 455 kts 344°
2026-05-07 02:13 36.19147 -81.12829 33141 ft 452 kts 343°
2026-05-07 02:13 36.22267 -81.13077 33677 ft 448 kts 342°
2026-05-07 02:13 36.25344 -81.13324 34140 ft 444 kts 342°
2026-05-07 02:14 36.28420 -81.13574 34521 ft 442 kts 341°
2026-05-07 02:14 36.31480 -81.13826 34845 ft 440 kts 341°
2026-05-07 02:14 36.34535 -81.14080 35117 ft 440 kts 341°
2026-05-07 02:14 36.37579 -81.14330 35493 ft 436 kts 341°
2026-05-07 02:15 36.40574 -81.14657 35805 ft 426 kts 336°
2026-05-07 02:15 36.43418 -81.15294 35986 ft 415 kts 331°
2026-05-07 02:15 36.46162 -81.16222 35998 ft 404 kts 327°
2026-05-07 02:15 36.48855 -81.17225 36000 ft 404 kts 328°
2026-05-07 02:16 36.54253 -81.19202 35994 ft 405 kts 328°
2026-05-07 02:16 36.59650 -81.21173 35955 ft 405 kts 328°
2026-05-07 02:17 36.65033 -81.23146 35975 ft 405 kts 328°
2026-05-07 02:17 36.70443 -81.25132 35987 ft 406 kts 327°
2026-05-07 02:18 36.75843 -81.27119 36003 ft 407 kts 327°
2026-05-07 02:18 36.81292 -81.29126 36034 ft 411 kts 327°
2026-05-07 02:19 36.86814 -81.31167 36033 ft 414 kts 327°
2026-05-07 02:19 36.92329 -81.33197 36064 ft 414 kts 327°
2026-05-07 02:20 36.97870 -81.35246 36041 ft 416 kts 327°
2026-05-07 02:20 37.03393 -81.37292 36020 ft 416 kts 327°
2026-05-07 02:21 37.08898 -81.39332 36001 ft 415 kts 327°
2026-05-07 02:21 37.14434 -81.41389 35982 ft 415 kts 327°
2026-05-07 02:22 37.19964 -81.43447 35976 ft 414 kts 326°
2026-05-07 02:22 37.25480 -81.45501 35953 ft 413 kts 326°
2026-05-07 02:23 37.30991 -81.47559 35983 ft 413 kts 326°
2026-05-07 02:23 37.36480 -81.49610 35972 ft 412 kts 326°
2026-05-07 02:24 37.41933 -81.51652 36010 ft 412 kts 326°
2026-05-07 02:24 37.47428 -81.53712 35967 ft 412 kts 326°
2026-05-07 02:25 37.52917 -81.55772 35958 ft 412 kts 326°
2026-05-07 02:25 37.58402 -81.57835 35941 ft 410 kts 326°
2026-05-07 02:26 37.63875 -81.59896 35966 ft 410 kts 326°
2026-05-07 02:26 37.69342 -81.61961 35969 ft 411 kts 325°
2026-05-07 02:27 37.74789 -81.64020 35974 ft 412 kts 325°
2026-05-07 02:27 37.80275 -81.66094 35991 ft 412 kts 325°
2026-05-07 02:28 37.85701 -81.68149 35971 ft 412 kts 325°
2026-05-07 02:28 37.91192 -81.70230 36008 ft 412 kts 325°
2026-05-07 02:29 37.96674 -81.72318 35982 ft 410 kts 325°
2026-05-07 02:29 38.00671 -81.73841 35983 ft 410 kts 325°
2026-05-07 02:30 38.00767 -81.73878 35984 ft 410 kts 325°
2026-05-07 02:30 38.06229 -81.75958 35984 ft 409 kts 325°
2026-05-07 02:31 38.11684 -81.78043 35989 ft 410 kts 325°
2026-05-07 02:31 38.17135 -81.80125 35996 ft 410 kts 325°
2026-05-07 02:32 38.22563 -81.82203 35997 ft 409 kts 325°
2026-05-07 02:32 38.28017 -81.84295 36000 ft 409 kts 325°
2026-05-07 02:33 38.33468 -81.86388 35996 ft 409 kts 325°
2026-05-07 02:33 38.38919 -81.88486 36020 ft 410 kts 325°
2026-05-07 02:34 38.44383 -81.90592 35998 ft 410 kts 325°
2026-05-07 02:34 38.49804 -81.92684 35994 ft 410 kts 325°
2026-05-07 02:35 38.55192 -81.94913 35988 ft 392 kts 317°
2026-05-07 02:35 38.57441 -81.96644 35977 ft 365 kts 305°
2026-05-07 02:35 38.59218 -81.98818 35973 ft 345 kts 296°
2026-05-07 02:36 38.62123 -82.03609 36023 ft 342 kts 295°
2026-05-07 02:36 38.65049 -82.08381 35978 ft 339 kts 294°
2026-05-07 02:37 38.67932 -82.13092 35985 ft 339 kts 294°
2026-05-07 02:37 38.70839 -82.17850 35985 ft 339 kts 294°
2026-05-07 02:38 38.73741 -82.22608 35986 ft 339 kts 294°
2026-05-07 02:38 38.76637 -82.27363 35986 ft 339 kts 294°
2026-05-07 02:39 38.79535 -82.32129 35995 ft 339 kts 294°
2026-05-07 02:39 38.82408 -82.36861 35994 ft 338 kts 294°
2026-05-07 02:40 38.85299 -82.41629 36015 ft 339 kts 293°
2026-05-07 02:40 38.88187 -82.46395 36079 ft 338 kts 293°
2026-05-07 02:41 38.91036 -82.51090 36038 ft 330 kts 292°
2026-05-07 02:41 38.93859 -82.55783 36036 ft 333 kts 292°
2026-05-07 02:42 38.95284 -82.58149 36038 ft 332 kts 292°
2026-05-07 02:43 38.96531 -82.60218 36040 ft 332 kts 292°
2026-05-07 02:43 38.99357 -82.64913 36034 ft 332 kts 292°
2026-05-07 02:44 39.02162 -82.69581 36036 ft 332 kts 292°
2026-05-07 02:44 39.04990 -82.74292 36033 ft 333 kts 292°
2026-05-07 02:45 39.07819 -82.79013 36037 ft 333 kts 292°
2026-05-07 02:45 39.10648 -82.83740 36027 ft 334 kts 292°
2026-05-07 02:46 39.13475 -82.88474 36049 ft 333 kts 292°
2026-05-07 02:46 39.16307 -82.93219 36036 ft 333 kts 292°
2026-05-07 02:47 39.19102 -82.97908 36036 ft 332 kts 292°
2026-05-07 02:47 39.21914 -83.02638 36035 ft 332 kts 292°
2026-05-07 02:48 39.24727 -83.07375 36034 ft 332 kts 292°
2026-05-07 02:48 39.27535 -83.12109 36038 ft 333 kts 292°
2026-05-07 02:49 39.30328 -83.16823 36049 ft 333 kts 292°
2026-05-07 02:49 39.33141 -83.21582 36041 ft 333 kts 292°
2026-05-07 02:50 39.35952 -83.26344 36040 ft 333 kts 292°
2026-05-07 02:50 39.38764 -83.31113 36065 ft 333 kts 292°
2026-05-07 02:51 39.40166 -83.33492 35836 ft 332 kts 292°
2026-05-07 02:51 39.41565 -83.35866 35557 ft 330 kts 291°
2026-05-07 02:51 39.42952 -83.38222 35045 ft 330 kts 291°
2026-05-07 02:51 39.44339 -83.40587 34340 ft 332 kts 291°
2026-05-07 02:52 39.45725 -83.42956 33500 ft 335 kts 291°
2026-05-07 02:52 39.47133 -83.45369 32574 ft 339 kts 292°
2026-05-07 02:52 39.48565 -83.47822 31639 ft 344 kts 292°
2026-05-07 02:52 39.50021 -83.50312 30762 ft 348 kts 293°
2026-05-07 02:53 39.51483 -83.52806 30317 ft 349 kts 293°
2026-05-07 02:53 39.52961 -83.55330 30145 ft 352 kts 293°
2026-05-07 02:53 39.55911 -83.60364 30032 ft 351 kts 293°
2026-05-07 02:54 39.58858 -83.65413 30044 ft 351 kts 293°
2026-05-07 02:54 39.61799 -83.70463 30043 ft 351 kts 293°
2026-05-07 02:55 39.64710 -83.75465 29983 ft 346 kts 293°
2026-05-07 02:55 39.66155 -83.77941 29487 ft 343 kts 292°
2026-05-07 02:55 39.67580 -83.80397 28799 ft 341 kts 292°
2026-05-07 02:56 39.69007 -83.82861 28069 ft 339 kts 292°
2026-05-07 02:56 39.70419 -83.85303 27358 ft 337 kts 293°
2026-05-07 02:56 39.71824 -83.87732 26675 ft 336 kts 293°
2026-05-07 02:56 39.73222 -83.90149 26009 ft 334 kts 293°
2026-05-07 02:57 39.74614 -83.92560 25373 ft 332 kts 293°
2026-05-07 02:57 39.75998 -83.94957 24731 ft 331 kts 293°
2026-05-07 02:57 39.77371 -83.97334 24257 ft 326 kts 293°
2026-05-07 02:57 39.78715 -83.99665 24082 ft 329 kts 293°
2026-05-07 02:58 39.80089 -84.02064 24027 ft 332 kts 293°
2026-05-07 02:58 39.81470 -84.04465 24023 ft 331 kts 293°
2026-05-07 02:58 39.82848 -84.06857 24020 ft 331 kts 293°
2026-05-07 02:58 39.84230 -84.09258 24011 ft 331 kts 293°
2026-05-07 02:59 39.85609 -84.11659 24022 ft 331 kts 293°
2026-05-07 02:59 39.86986 -84.14056 24035 ft 331 kts 293°
2026-05-07 02:59 39.88365 -84.16459 24066 ft 331 kts 293°
2026-05-07 02:59 39.89721 -84.18824 24044 ft 329 kts 293°
2026-05-07 03:00 39.91092 -84.21215 24033 ft 330 kts 293°
2026-05-07 03:00 39.92462 -84.23610 24036 ft 330 kts 293°
2026-05-07 03:00 39.93829 -84.26001 24036 ft 330 kts 293°
2026-05-07 03:00 39.95202 -84.28404 24036 ft 330 kts 293°
2026-05-07 03:01 39.96568 -84.30795 24040 ft 329 kts 294°
2026-05-07 03:01 39.97936 -84.33192 24036 ft 329 kts 294°
2026-05-07 03:01 39.99301 -84.35584 24044 ft 329 kts 293°
2026-05-07 03:01 40.00550 -84.38041 24034 ft 321 kts 288°
2026-05-07 03:02 40.01256 -84.39720 24037 ft 317 kts 285°
2026-05-07 03:02 40.02153 -84.42323 24035 ft 312 kts 281°
2026-05-07 03:02 40.03037 -84.45853 24035 ft 307 kts 277°
2026-05-07 03:02 40.03633 -84.48530 24034 ft 308 kts 278°
2026-05-07 03:03 40.04243 -84.51213 24033 ft 308 kts 278°
2026-05-07 03:03 40.04852 -84.53887 24032 ft 308 kts 278°
2026-05-07 03:03 40.05459 -84.56557 24031 ft 308 kts 278°
2026-05-07 03:03 40.06064 -84.59234 24031 ft 307 kts 278°
2026-05-07 03:04 40.06667 -84.61911 24033 ft 308 kts 278°
2026-05-07 03:04 40.07066 -84.63683 24032 ft 308 kts 278°
2026-05-07 03:04 40.07670 -84.66368 24032 ft 308 kts 278°
2026-05-07 03:04 40.08270 -84.69048 24036 ft 309 kts 278°
2026-05-07 03:05 40.08875 -84.71753 24030 ft 309 kts 278°
2026-05-07 03:05 40.09473 -84.74435 24032 ft 309 kts 278°
2026-05-07 03:05 40.10074 -84.77144 24031 ft 309 kts 278°
2026-05-07 03:05 40.10661 -84.79795 23913 ft 306 kts 278°
2026-05-07 03:06 40.11259 -84.82496 23461 ft 306 kts 278°
2026-05-07 03:06 40.11839 -84.85121 23123 ft 304 kts 278°
2026-05-07 03:06 40.12425 -84.87789 23031 ft 308 kts 278°
2026-05-07 03:06 40.13016 -84.90481 23028 ft 309 kts 278°
2026-05-07 03:07 40.13609 -84.93170 23025 ft 308 kts 278°
2026-05-07 03:07 40.14201 -84.95859 23028 ft 308 kts 278°
2026-05-07 03:07 40.14795 -84.98569 23037 ft 314 kts 278°
2026-05-07 03:07 40.15397 -85.01335 23026 ft 318 kts 279°
2026-05-07 03:08 40.16005 -85.04106 23027 ft 316 kts 279°
2026-05-07 03:08 40.16605 -85.06842 23024 ft 320 kts 279°
2026-05-07 03:08 40.17217 -85.09644 23030 ft 321 kts 279°
2026-05-07 03:08 40.17828 -85.12437 23028 ft 320 kts 279°
2026-05-07 03:09 40.18441 -85.15244 23020 ft 320 kts 279°
2026-05-07 03:09 40.19052 -85.18050 23024 ft 321 kts 279°
2026-05-07 03:09 40.19664 -85.20855 23024 ft 321 kts 279°
2026-05-07 03:09 40.20277 -85.23651 23023 ft 321 kts 279°
2026-05-07 03:10 40.20892 -85.26455 23025 ft 321 kts 279°
2026-05-07 03:10 40.21506 -85.29263 23025 ft 320 kts 279°
2026-05-07 03:10 40.22119 -85.32067 23045 ft 320 kts 279°
2026-05-07 03:10 40.22725 -85.34858 22931 ft 317 kts 278°
2026-05-07 03:11 40.23041 -85.37665 22479 ft 309 kts 267°
2026-05-07 03:11 40.22843 -85.40405 21842 ft 306 kts 257°
2026-05-07 03:11 40.22161 -85.43040 21152 ft 307 kts 247°
2026-05-07 03:11 40.21113 -85.45510 20340 ft 312 kts 244°
2026-05-07 03:12 40.20113 -85.48021 19679 ft 309 kts 252°
2026-05-07 03:12 40.19820 -85.50762 19230 ft 306 kts 272°
2026-05-07 03:12 40.20365 -85.53498 19090 ft 317 kts 284°
2026-05-07 03:12 40.21128 -85.56208 19045 ft 318 kts 284°
2026-05-07 03:13 40.21893 -85.58919 19044 ft 317 kts 284°
2026-05-07 03:13 40.22657 -85.61628 19036 ft 317 kts 284°
2026-05-07 03:13 40.23412 -85.64294 18843 ft 315 kts 284°
2026-05-07 03:13 40.24167 -85.66974 18398 ft 314 kts 284°
2026-05-07 03:14 40.24917 -85.69663 17533 ft 318 kts 284°
2026-05-07 03:14 40.25670 -85.72448 16146 ft 334 kts 285°
2026-05-07 03:14 40.27037 -85.78598 13268 ft 362 kts 274°
2026-05-07 03:15 40.26869 -85.81857 12350 ft 359 kts 257°
2026-05-07 03:15 40.25920 -85.84875 11489 ft 360 kts 241°
2026-05-07 03:15 40.24266 -85.87353 10605 ft 366 kts 223°
2026-05-07 03:15 40.22084 -85.89009 9773 ft 374 kts 205°
2026-05-07 03:16 40.19513 -85.89687 8913 ft 382 kts 186°
2026-05-07 03:16 40.16866 -85.89343 8132 ft 383 kts 174°
2026-05-07 03:16 40.14246 -85.88805 7388 ft 378 kts 174°
2026-05-07 03:16 40.11659 -85.88685 6642 ft 369 kts 191°
2026-05-07 03:17 40.09239 -85.89620 5843 ft 361 kts 205°
2026-05-07 03:17 40.06924 -85.90852 5255 ft 354 kts 205°
2026-05-07 03:17 40.04694 -85.92033 5040 ft 337 kts 205°
2026-05-07 03:17 40.02588 -85.93141 4986 ft 316 kts 205°
2026-05-07 03:18 40.00611 -85.94173 4986 ft 296 kts 205°
2026-05-07 03:18 39.98756 -85.95131 4985 ft 278 kts 205°
2026-05-07 03:18 39.97037 -85.96010 4985 ft 260 kts 205°
2026-05-07 03:18 39.95403 -85.96837 4979 ft 244 kts 205°
2026-05-07 03:19 39.93871 -85.97619 4986 ft 228 kts 205°
2026-05-07 03:19 39.92595 -85.98658 4993 ft 212 kts 233°
2026-05-07 03:19 39.91972 -86.00382 4992 ft 211 kts 261°
2026-05-07 03:19 39.91709 -86.02246 4947 ft 208 kts 259°
2026-05-07 03:20 39.91278 -86.04046 4696 ft 209 kts 249°
2026-05-07 03:20 39.90599 -86.05711 4483 ft 205 kts 240°
2026-05-07 03:20 39.89794 -86.07183 4398 ft 194 kts 236°
2026-05-07 03:20 39.88964 -86.08518 4150 ft 193 kts 234°
2026-05-07 03:21 39.88088 -86.09816 3825 ft 191 kts 229°
2026-05-07 03:21 39.87126 -86.11024 3352 ft 194 kts 228°
2026-05-07 03:21 39.86165 -86.12232 3054 ft 187 kts 228°
2026-05-07 03:21 39.85269 -86.13352 2984 ft 170 kts 229°
2026-05-07 03:22 39.84468 -86.14371 2978 ft 152 kts 230°
2026-05-07 03:22 39.83744 -86.15300 2998 ft 148 kts 231°
2026-05-07 03:22 39.83015 -86.16237 2985 ft 146 kts 230°
2026-05-07 03:22 39.82288 -86.17166 2987 ft 147 kts 230°
2026-05-07 03:23 39.81564 -86.18093 2992 ft 146 kts 230°
2026-05-07 03:23 39.80858 -86.18996 2980 ft 146 kts 230°
2026-05-07 03:23 39.80113 -86.19950 2836 ft 148 kts 230°
2026-05-07 03:23 39.79385 -86.20880 2642 ft 147 kts 231°
2026-05-07 03:24 39.78659 -86.21811 2453 ft 147 kts 231°
2026-05-07 03:24 39.77934 -86.22738 2253 ft 146 kts 231°
2026-05-07 03:24 39.77208 -86.23669 2050 ft 146 kts 231°
2026-05-07 03:24 39.76486 -86.24592 1856 ft 145 kts 230°
2026-05-07 03:25 39.75767 -86.25514 1651 ft 145 kts 230°
2026-05-07 03:25 39.75048 -86.26435 1443 ft 145 kts 227°
2026-05-07 03:25 39.74337 -86.27347 1259 ft 143 kts 227°
2026-05-07 03:25 39.73627 -86.28256 1052 ft 143 kts 227°
2026-05-07 03:26 39.72922 -86.29158 861 ft 140 kts 227°
2026-05-07 03:26 39.72275 -86.29996 786 ft 112 kts 225°
2026-05-07 03:26 39.71938 -86.30428 783 ft 38 kts 223°
2026-05-07 03:26 39.71741 -86.30679 784 ft 39 kts 225°
2026-05-07 03:27 39.71554 -86.30906 788 ft 27 kts 219°
2026-05-07 03:27 39.71405 -86.31002 787 ft 7 kts 182°
2026-05-07 03:27 39.71367 -86.31002 787 ft 8 kts 177°
2026-05-07 03:27 39.71313 -86.30961 786 ft 10 kts 113°
2026-05-07 03:28 39.71347 -86.30881 786 ft 11 kts 45°
2026-05-07 03:28 39.71407 -86.30803 788 ft 13 kts 44°
2026-05-07 03:28 39.71483 -86.30711 786 ft 17 kts 43°
2026-05-07 03:28 39.71578 -86.30596 785 ft 20 kts 44°
2026-05-07 03:29 39.71686 -86.30460 782 ft 24 kts 43°
2026-05-07 03:29 39.71801 -86.30306 783 ft 22 kts 44°
2026-05-07 03:29 39.71887 -86.30158 782 ft 16 kts 96°
2026-05-07 03:29 39.71820 -86.30049 785 ft 16 kts 141°
2026-05-07 03:30 39.71717 -86.29991 787 ft 16 kts 167°
2026-05-07 03:30 39.71663 -86.29977 787 ft 1 kts 166°
2026-05-07 03:30 39.71650 -86.29974 787 ft 1 kts 169°
2026-05-07 03:31 39.71649 -86.29974 787 ft 1 kts 169°
2026-05-07 03:31 39.71648 -86.29974 787 ft 0 kts 169°